Terug naar catalogus

FENGYUN 1C DEB

ActiefPO
NORAD 37704·DEBRIS·🇨🇳 China

Gelanceerd May 10, 1999 vanaf Taiyuan Satellite Launch Center

Loading…

Volgende Passages (komende 24 uur)

TLE

VersSource: Space-Track

Epoch: Sep 12, 2026, 22:18 UTC

1 37704U 99025ELV 26255.92962425  .00001084  00000-0  10182-2 0  9992
2 37704  98.3382  57.8913 0240415 162.2188 350.6398 13.71148927661216

Volg FENGYUN 1C DEB in realtime met AllMySat

Download on the App Store